Weather in Ravenna

Italy     44°25′12″N   12°11′36″E
temp.,
°C
wind,
m/s
gust,
m/s
humid.,
%
clouds,
%
prec.,
mm/h
press.,
hPa
HPBL,
m
23 january, sat
sat2301:00+11sse5107590 0.4 994391
04:00+11sse7127483 0.2 992568
07:00+9s8157198 0.1 9921272
10:00+10ssw101665100 0.1 9931237
13:00+9w71085100 0.8 995763
16:00+8wnw7108599 0.1 996479
19:00+7sse118688 0.1 996103
22:00+8n1280100 0.1 994148
24 january, sun
sun2401:00+8nnw117786 0.1 995218
04:00+6wnw338631 0.0 996120
07:00+7ene237871 0.1 996154
10:00+9ne4684100 0.3 994439
13:00+7nnw458599 0.4 998416
16:00+8nw7973100 0.1 996902
19:00+6wnw6108060 0.1 1000489
22:00+6w237454 0.0 1002146
25 january, mon
mon2501:00+4w348663 0.0 1000160
04:00+6sse696963 0.0 1001262
07:00+4nw5684100 0.1 1001289
10:00+5wnw7881100 0.1 1004331
13:00+4wnw6893100 11.9 998406
16:00+7wnw69574 0.0 1000938
19:00+5wnw6116318 0.0 1004518
22:00+4wnw456748 0.0 1007242
26 january, tue
tue2601:00+3w477424 0.0 1009224
04:00+3wnw69740 0.0 1009253
07:00+2wnw69700 0.0 1012291
10:00+3wnw68590 0.0 1014339
13:00+6wnw57450 0.0 1014555
16:00+6wnw35460 0.0 1014555
19:00+4w34545 0.0 1016242
22:00+3w346022 0.0 1017147
27 january, wed
wed2701:00+3wnw346129 0.0 1018151
04:00+3wnw346240 0.0 1017160
07:00+3nw2263100 0.0 1017104
10:00+4w235766 0.0 1019191
13:00+6wnw234967 0.0 1019384
16:00+7w114862 0.0 1018266
19:00+5w226467 0.0 1017174
22:00+4sw225866 0.0 1020109